When you browse on this site, cookies collect data to enhance your experience and personalize the content and advertising you see.
Visit our Privacy Policy to learn more. By continuing to use the site, you agree to this use of cookies and data.
  • In Portugal
  • List of Countries
  • For 7 days
  • Water Temperature
  • Satellite Maps
  • Weather Map
  • Weather Widgets
  • user-avatar
    Login

    Hourly Weather Sylhet

    Today, 21 July, Sunday

    Time Temperature Precipitation Wind Pressure Humidity
    00:00 +29°C° 0 mm 2 mps 752 mmHg 90%
    01:00 +29°C° 1.2 mm 2 mps 752 mmHg 90%
    02:00 +29°C° 1.2 mm 2 mps 752 mmHg 91%
    03:00 +28°C° 1.2 mm 3 mps 751 mmHg 91%
    04:00 +28°C° 0.5 mm 2 mps 752 mmHg 91%
    05:00 +28°C° 0.5 mm 2 mps 752 mmHg 92%
    06:00 +29°C° 0 mm 2 mps 752 mmHg 92%
    07:00 +30°C° 1.4 mm 2 mps 752 mmHg 86%
    08:00 +31°C° 1.4 mm 2 mps 752 mmHg 81%
    09:00 +34°C° 1.4 mm 3 mps 752 mmHg 75%
    10:00 +34°C° 1.1 mm 3 mps 752 mmHg 72%
    11:00 +35°C° 1.1 mm 3 mps 752 mmHg 69%
    12:00 +36°C° 0 mm 2 mps 753 mmHg 65%
    13:00 +36°C° 1.2 mm 2 mps 752 mmHg 65%
    14:00 +36°C° 1.2 mm 2 mps 751 mmHg 65%
    15:00 +36°C° 1.2 mm 2 mps 750 mmHg 65%
    16:00 +35°C° 1.4 mm 2 mps 750 mmHg 70%
    17:00 +34°C° 1.4 mm 2 mps 750 mmHg 75%
    18:00 +32°C° 1.4 mm 2 mps 750 mmHg 80%
    19:00 +31°C° 1.1 mm 2 mps 750 mmHg 82%
    20:00 +31°C° 1.1 mm 2 mps 751 mmHg 84%
    21:00 +30°C° 1.1 mm 2 mps 752 mmHg 86%
    22:00 +29°C° 1.6 mm 2 mps 752 mmHg 88%
    23:00 +29°C° 1.6 mm 2 mps 752 mmHg 90%

    Tomorrow, 22 July, Monday

    Time Temperature Precipitation Wind Pressure Humidity
    00:00 +29°C° 1.6 mm 2 mps 752 mmHg 92%
    01:00 +28°C° 2.3 mm 2 mps 751 mmHg 92%
    02:00 +28°C° 2.3 mm 2 mps 751 mmHg 93%
    03:00 +28°C° 2.3 mm 2 mps 751 mmHg 93%
    04:00 +28°C° 1 mm 2 mps 751 mmHg 92%
    05:00 +28°C° 1 mm 2 mps 751 mmHg 92%
    06:00 +28°C° 1 mm 2 mps 751 mmHg 91%
    07:00 +29°C° 0.5 mm 2 mps 752 mmHg 87%
    08:00 +30°C° 0.5 mm 2 mps 752 mmHg 83%
    09:00 +31°C° 0.5 mm 2 mps 752 mmHg 79%
    10:00 +33°C° 0.7 mm 3 mps 752 mmHg 75%
    11:00 +34°C° 0.7 mm 3 mps 752 mmHg 71%
    12:00 +35°C° 0.7 mm 3 mps 751 mmHg 67%
    13:00 +35°C° 1.3 mm 3 mps 751 mmHg 69%
    14:00 +35°C° 1.3 mm 4 mps 750 mmHg 70%
    15:00 +35°C° 1.3 mm 4 mps 750 mmHg 72%
    16:00 +34°C° 1.3 mm 3 mps 750 mmHg 76%
    17:00 +33°C° 1.3 mm 3 mps 750 mmHg 80%
    18:00 +31°C° 1.3 mm 3 mps 750 mmHg 84%
    19:00 +30°C° 1.1 mm 3 mps 751 mmHg 86%
    20:00 +29°C° 1.1 mm 3 mps 751 mmHg 87%
    21:00 +29°C° 1.1 mm 3 mps 752 mmHg 89%
    22:00 +29°C° 0.6 mm 3 mps 752 mmHg 90%
    23:00 +28°C° 0.6 mm 3 mps 752 mmHg 91%

    Day after tomorrow, 23 July, Tuesday

    Time Temperature Precipitation Wind Pressure Humidity
    00:00 +28°C° 0.6 mm 3 mps 752 mmHg 92%
    01:00 +28°C° 0.6 mm 2 mps 751 mmHg 92%
    02:00 +28°C° 0.6 mm 2 mps 751 mmHg 92%
    03:00 +28°C° 0.6 mm 2 mps 751 mmHg 92%
    04:00 +28°C° 0.2 mm 1 mps 751 mmHg 92%
    05:00 +28°C° 0.2 mm 1 mps 751 mmHg 91%
    06:00 +28°C° 0.2 mm 1 mps 751 mmHg 91%
    07:00 +28°C° 0.4 mm 1 mps 751 mmHg 89%
    08:00 +28°C° 0.4 mm 1 mps 752 mmHg 88%
    09:00 +29°C° 0.4 mm 2 mps 753 mmHg 86%
    10:00 +30°C° 0.6 mm 2 mps 752 mmHg 84%
    11:00 +30°C° 0.6 mm 2 mps 752 mmHg 82%
    12:00 +31°C° 0.6 mm 2 mps 751 mmHg 80%
    13:00 +31°C° 1.9 mm 2 mps 751 mmHg 82%
    14:00 +31°C° 1.9 mm 1 mps 751 mmHg 83%
    15:00 +30°C° 1.9 mm 1 mps 750 mmHg 85%
    16:00 +30°C° 1.7 mm 2 mps 750 mmHg 87%
    17:00 +29°C° 1.7 mm 2 mps 750 mmHg 88%
    18:00 +29°C° 1.7 mm 3 mps 750 mmHg 90%
    19:00 +28°C° 1 mm 3 mps 751 mmHg 90%
    20:00 +28°C° 1 mm 3 mps 752 mmHg 91%
    21:00 +28°C° 1 mm 4 mps 752 mmHg 91%
    22:00 +28°C° 0.6 mm 3 mps 752 mmHg 92%
    23:00 +27°C° 0.6 mm 3 mps 752 mmHg 92%

    24 July, Wednesday

    Time Temperature Precipitation Wind Pressure Humidity
    00:00 +27°C° 0.6 mm 2 mps 752 mmHg 93%
    01:00 +27°C° 0.3 mm 2 mps 752 mmHg 93%
    02:00 +27°C° 0.3 mm 2 mps 751 mmHg 93%
    03:00 +27°C° 0.3 mm 2 mps 751 mmHg 93%
    04:00 +27°C° 0 mm 2 mps 751 mmHg 93%
    05:00 +27°C° 0 mm 2 mps 751 mmHg 93%
    06:00 +27°C° 0 mm 2 mps 751 mmHg 92%
    07:00 +27°C° 0 mm 2 mps 751 mmHg 91%
    08:00 +28°C° 0 mm 2 mps 752 mmHg 89%
    09:00 +28°C° 0 mm 2 mps 753 mmHg 87%
    10:00 +29°C° 0.6 mm 2 mps 752 mmHg 86%
    11:00 +29°C° 0.6 mm 3 mps 752 mmHg 85%
    12:00 +30°C° 0.6 mm 3 mps 752 mmHg 84%
    13:00 +30°C° 1.1 mm 3 mps 752 mmHg 85%
    14:00 +29°C° 1.1 mm 3 mps 751 mmHg 87%
    15:00 +29°C° 1.1 mm 3 mps 751 mmHg 88%
    16:00 +29°C° 1.7 mm 3 mps 751 mmHg 90%
    17:00 +28°C° 1.7 mm 3 mps 751 mmHg 92%
    18:00 +27°C° 1.7 mm 3 mps 751 mmHg 94%
    19:00 +27°C° 1.3 mm 3 mps 752 mmHg 95%
    20:00 +27°C° 1.3 mm 3 mps 752 mmHg 95%
    21:00 +27°C° 1.3 mm 3 mps 753 mmHg 96%
    22:00 +27°C° 0.4 mm 3 mps 753 mmHg 96%
    23:00 +27°C° 0.4 mm 3 mps 753 mmHg 96%

    25 July, Thursday

    Time Temperature Precipitation Wind Pressure Humidity
    00:00 +27°C° 0.4 mm 2 mps 753 mmHg 96%
    01:00 +27°C° 0.8 mm 3 mps 752 mmHg 96%
    02:00 +27°C° 0.8 mm 3 mps 752 mmHg 95%
    03:00 +27°C° 0.8 mm 3 mps 752 mmHg 95%
    04:00 +27°C° 0.7 mm 3 mps 752 mmHg 95%
    05:00 +27°C° 0.7 mm 3 mps 752 mmHg 95%
    06:00 +27°C° 0.7 mm 3 mps 752 mmHg 95%
    07:00 +27°C° 1.1 mm 3 mps 752 mmHg 95%
    08:00 +27°C° 1.1 mm 2 mps 753 mmHg 95%
    09:00 +27°C° 1.1 mm 2 mps 754 mmHg 94%
    10:00 +27°C° 0.5 mm 2 mps 753 mmHg 93%
    11:00 +28°C° 0.5 mm 2 mps 753 mmHg 92%
    12:00 +28°C° 0.5 mm 2 mps 753 mmHg 91%
    13:00 +29°C° 0.6 mm 2 mps 753 mmHg 89%
    14:00 +29°C° 0.6 mm 2 mps 752 mmHg 88%
    15:00 +29°C° 0.6 mm 2 mps 751 mmHg 86%
    16:00 +29°C° 0.7 mm 2 mps 751 mmHg 88%
    17:00 +29°C° 0.7 mm 2 mps 751 mmHg 90%
    18:00 +28°C° 0.7 mm 1 mps 751 mmHg 91%
    19:00 +28°C° 0.3 mm 1 mps 752 mmHg 92%
    20:00 +28°C° 0.3 mm 1 mps 752 mmHg 93%
    21:00 +27°C° 0.3 mm 1 mps 753 mmHg 94%
    22:00 +27°C° 0.1 mm 1 mps 753 mmHg 94%
    23:00 +27°C° 0.1 mm 1 mps 753 mmHg 94%

    26 July, Friday

    Time Temperature Precipitation Wind Pressure Humidity
    00:00 +27°C° 0.1 mm 1 mps 753 mmHg 94%
    01:00 +27°C° 0 mm 1 mps 752 mmHg 94%
    02:00 +27°C° 0 mm 1 mps 752 mmHg 94%
    03:00 +27°C° 0 mm 2 mps 752 mmHg 94%
    04:00 +26°C° 0 mm 2 mps 752 mmHg 94%
    05:00 +26°C° 0 mm 2 mps 752 mmHg 94%
    06:00 +26°C° 0 mm 2 mps 752 mmHg 94%
    07:00 +27°C° 0 mm 2 mps 752 mmHg 90%
    08:00 +29°C° 0 mm 2 mps 753 mmHg 85%
    09:00 +30°C° 0 mm 2 mps 753 mmHg 81%
    10:00 +31°C° 0.1 mm 2 mps 752 mmHg 76%
    11:00 +32°C° 0.1 mm 2 mps 752 mmHg 71%
    12:00 +35°C° 0.1 mm 2 mps 751 mmHg 66%
    13:00 +35°C° 0.4 mm 2 mps 750 mmHg 65%
    14:00 +35°C° 0.4 mm 2 mps 750 mmHg 64%
    15:00 +36°C° 0.4 mm 2 mps 749 mmHg 63%
    16:00 +34°C° 1.2 mm 2 mps 749 mmHg 69%
    17:00 +33°C° 1.2 mm 3 mps 749 mmHg 75%
    18:00 +31°C° 1.2 mm 3 mps 750 mmHg 81%
    19:00 +30°C° 0.8 mm 3 mps 750 mmHg 84%
    20:00 +29°C° 0.8 mm 3 mps 751 mmHg 87%
    21:00 +28°C° 0.8 mm 3 mps 752 mmHg 90%
    22:00 +28°C° 0.3 mm 3 mps 752 mmHg 91%
    23:00 +28°C° 0.3 mm 3 mps 752 mmHg 92%
    Show more